[[{"header":{"parameterUnit":"m.s-1","parameterCategory":1,"la1":30.2991,"la2":30.254,"lo1":-89.0895,"lo2":-89.0444,"dy":0.0017,"dx":0.0017,"nx":28,"ny":28,"refTime":"2025-07-17T21:00:00:Z","depth":0,"parameterNumber":2,"parameterNumberName":"U-component_of_WINDS"},"data":[0,0,0,0,0,0,0,0,0,0,0,0,0,0,0,0,0,0,0,0,0,0,0,0,0,0,0,0,0,0,0,0,0,0,0,0,0,0,0,0,0,0,0,0,0,0,0,0,0,0,0,0,0,0,0,0,0,0,0.9736,0.9736,0,0.9784,0.9785,0.9785,0.9779,0.9778,0.9778,0.9777,0.9827,0.9829,0.9831,0,0,0,0,0,0,0,0,0,0,0,0,0,0.9637,0.9639,0.9736,0.9736,0.9737,0.9784,0.9785,0.9786,0.9779,0.9778,0.9777,0.9777,0.9826,0.9828,0.9831,0,0,0,0,0,0,0,0,0,0,0,0,0,0.9682,0.964,0.9736,0.974,0.974,0.9784,0.9785,0.9786,0.978,0.9778,0.9777,0.9776,0.9825,0.9828,0.9831,0.9874,0,0,0.9841,0.9842,0,0,0,0,0,0,0,0,0.968,0.9686,0.9738,0.9739,0.974,0.9775,0.9769,0.9815,0.978,0.9765,0.9777,0.9776,0.981,0.9815,0.9826,0.9877,0.9879,0.9841,0.9843,0.9844,0.9845,0,0,0,0,0,0,0,0.9677,0.9684,0.9755,0.9739,0.974,0.9739,0.9744,0.9777,0.9794,0.9766,0.9766,0.9771,0.9811,0.9823,0.9827,0.9879,0.9841,0.9844,0.9846,0.9847,0.9968,0.997,0,0,0,0,0,0,0.9673,0.9681,0.9753,0.9756,0.9707,0.9742,0.9747,0.9765,0.9793,0.9796,0.9772,0.9771,0.9819,0.9824,0.9829,0.9883,0.9844,0.9847,0.9849,0.9967,0.9969,0.997,0,0,0,0,0,0,0.9671,0.9679,0.9751,0.9719,0.9728,0.9745,0.9764,0.9766,0.9779,0.9798,0.9801,0.9782,0.9818,0.9825,0.9863,0.9884,0.9849,0.9851,0.9965,0.9968,0.9969,0.9989,0,0,0,0,0,0,0.9668,0.9678,0.9695,0.9719,0.973,0.9785,0.9765,0.9768,0.9784,0.9783,0.9808,0.9811,0.9817,0.9859,0.9866,0.9888,0.9854,0.9964,0.9966,0.9969,0.9986,0.9991,0.9995,0,0,0,0,0,0.9664,0.9698,0.9696,0.9705,0.9751,0.9786,0.9792,0.9798,0.9786,0.9803,0.9815,0.9811,0.988,0.9863,0.9871,0.9894,0.9962,0.9966,0.9969,0.9984,0.999,0.9995,0,0,0,0,0,0,0.9676,0.9702,0.9699,0.9742,0.9762,0.9785,0.9807,0.9804,0.9828,0.9826,0.9833,0.9838,0.9878,0.9889,0.9869,0.9937,0.992,0.9925,0.9929,0.9934,0.9939,0.9936,0.9856,0,0,0,0,0,0.9683,0.971,0.9731,0.9767,0.9777,0.979,0.9805,0.9809,0.983,0.9838,0.9853,0.9874,0.99,0.9918,0.9943,0.9987,0.9993,1.0007,1.0012,1.0015,1.002,1.0045,1.0052,0.998,0.998,0.998,0,0,0.9699,0.9717,0.9733,0.9769,0.9785,0.9813,0.9797,0.9827,0.9848,0.9843,0.988,0.9892,0.9915,0.9957,0.9976,0.9968,1.0041,1.0019,1.0022,1.0025,1.0049,1.0056,1.0062,0.9982,0.9982,0.9982,0,0,0.9743,0.9758,0.979,0.9806,0.9831,0.9839,0.9847,0.987,0.9878,0.9916,0.9913,0.9937,0.9983,1.0,1.0015,1.0064,1.0061,1.0072,1.0096,1.0121,1.0127,1.0132,1.0151,1.0158,1.0077,1.0077,1.0077,0,0.976,0.9801,0.9807,0.9837,0.9854,0.985,0.9883,0.9898,0.993,0.9941,0.9931,0.9989,1.0004,1.005,1.0063,1.0074,1.0084,1.007,1.0126,1.0131,1.0136,1.0154,1.0161,1.0078,1.0078,1.0078,1.0077,0,0.9821,0.985,0.9873,0.9904,0.9923,0.9954,0.9965,0.9983,0.9984,0.9994,1.0033,1.0051,1.0081,1.0091,1.0093,1.0138,1.0133,1.0124,1.0107,1.0144,1.0161,1.0168,1.008,1.0079,1.0079,1.0079,0,0,0.9875,0.9908,0.9917,0.9931,0.9957,0.998,1.0011,1.004,1.0056,1.0077,1.0105,1.0143,1.0135,1.0152,1.0155,1.0176,1.0217,1.0165,1.0166,1.0176,1.027,1.0277,1.0285,1.0214,1.0215,1.0216,1.0268,0,0.9922,0.9978,0.9984,1.0034,1.0061,1.0058,1.0085,1.0104,1.0114,1.0138,1.0149,1.0177,1.0164,1.0174,1.0195,1.0207,1.0236,1.0203,1.024,1.0242,1.0237,1.0294,1.0302,1.035,1.0275,1.0276,1.0277,0,0.9985,1.0009,1.0062,1.0085,1.0097,1.0121,1.0149,1.0172,1.0194,1.0199,1.0218,1.0218,1.0251,1.0231,1.0276,1.0254,1.0269,1.0278,1.028,1.0285,1.0263,1.0303,1.0366,1.0374,1.0287,1.0287,1.0286,0,1.0021,1.0065,1.0103,1.0115,1.0143,1.0161,1.0173,1.0193,1.0211,1.0234,1.0246,1.0273,1.0288,1.0309,1.0317,1.0301,1.0363,1.0343,1.0369,1.0369,1.0384,1.0383,1.0452,1.039,1.039,1.039,1.039,0,1.0074,1.0107,1.012,1.0143,1.018,1.0186,1.0222,1.0234,1.0252,1.0278,1.0276,1.03,1.0308,1.0334,1.034,1.0378,1.0384,1.039,1.0392,1.0392,1.0391,1.0403,1.0401,1.0392,1.0392,1.0391,1.0391,0,1.0121,1.013,1.0172,1.0194,1.0201,1.0227,1.0247,1.027,1.0278,1.0311,1.0319,1.0334,1.0364,1.0373,1.0409,1.0414,1.0458,1.0456,1.0451,1.0452,1.0478,1.0476,1.0559,1.057,1.0499,1.05,1.0501,0,1.0155,1.018,1.0206,1.0223,1.0236,1.0264,1.0281,1.0288,1.0307,1.0334,1.0353,1.0383,1.0408,1.0456,1.047,1.0498,1.0497,1.0524,1.0502,1.0501,1.05,1.0499,1.0502,1.0529,1.053,1.053,1.0531,0,1.0215,1.0219,1.0244,1.0272,1.0294,1.0316,1.0337,1.0351,1.0361,1.0382,1.0413,1.0432,1.0469,1.0499,1.0528,1.054,1.0538,1.0538,1.0546,1.0546,1.0543,1.0547,1.0465,1.0536,1.0536,1.0535,1.0535,1.0535,1.0258,1.0281,1.0302,1.0331,1.0348,1.0368,1.0391,1.0403,1.0429,1.046,1.0462,1.0496,1.0517,1.0555,1.057,1.0596,1.0589,1.06,1.0603,1.0606,1.0609,1.0538,1.0601,1.0601,1.0601,1.0601,1.0601,0,1.0319,1.0333,1.036,1.039,1.0413,1.0408,1.0431,1.0451,1.0481,1.0501,1.0525,1.0561,1.059,1.0606,1.0635,1.0654,1.0654,1.0662,1.0661,1.0665,1.0613,1.0604,1.0661,1.0661,1.0661,1.0661,1.0661,1.0661,1.0354,1.0393,1.0399,1.0447,1.046,1.0494,1.0508,1.0526,1.0543,1.0583,1.0607,1.0617,1.0636,1.0667,1.0694,1.0698,1.0709,1.0719,1.0722,1.0674,1.0668,1.0662,1.0654,1.0721,1.0721,1.0771,1.0772,1.0772]},{"header":{"parameterUnit":"m.s-1","parameterCategory":1,"la1":30.2991,"la2":30.254,"lo1":-89.0895,"lo2":-89.0444,"dy":0.0017,"dx":0.0017,"nx":28,"ny":28,"refTime":"2025-07-17T21:00:00:Z","depth":0,"parameterNumber":3,"parameterNumberName":"V-component_of_WINDS"},"data":[0,0,0,0,0,0,0,0,0,0,0,0,0,0,0,0,0,0,0,0,0,0,0,0,0,0,0,0,0,0,0,0,0,0,0,0,0,0,0,0,0,0,0,0,0,0,0,0,0,0,0,0,0,0,0,0,0,0,5.2172,5.2173,0,5.2221,5.2222,5.2222,5.2196,5.2195,5.2194,5.2193,5.2243,5.2245,5.2248,0,0,0,0,0,0,0,0,0,0,0,0,0,5.2057,5.2059,5.2172,5.2173,5.2174,5.2221,5.2222,5.2222,5.2197,5.2195,5.2194,5.2192,5.2242,5.2245,5.2248,0,0,0,0,0,0,0,0,0,0,0,0,0,5.2106,5.206,5.2172,5.2167,5.2167,5.2221,5.2222,5.2222,5.2197,5.2195,5.2193,5.2191,5.2241,5.2245,5.2248,5.2311,0,0,5.226,5.2262,0,0,0,0,0,0,0,0,5.2104,5.2111,5.2167,5.2167,5.2167,5.2201,5.2199,5.2252,5.2198,5.2185,5.2193,5.219,5.223,5.2235,5.2248,5.2313,5.2315,5.226,5.2263,5.2264,5.2265,0,0,0,0,0,0,0,5.21,5.2108,5.2192,5.2168,5.2168,5.2161,5.2166,5.2209,5.2218,5.2186,5.2185,5.2191,5.223,5.2245,5.2249,5.2316,5.226,5.2264,5.2266,5.2267,5.2435,5.2437,0,0,0,0,0,0,5.2097,5.2106,5.219,5.2193,5.213,5.2165,5.217,5.2192,5.2218,5.222,5.2192,5.2189,5.2239,5.2245,5.2251,5.2326,5.2264,5.2268,5.227,5.2433,5.2435,5.2438,0,0,0,0,0,0,5.2095,5.2105,5.2188,5.2149,5.2159,5.2169,5.2193,5.2194,5.2208,5.2222,5.2224,5.2206,5.2238,5.2246,5.2296,5.2328,5.227,5.2273,5.243,5.2434,5.2436,5.2477,0,0,0,0,0,0,5.2091,5.2104,5.2128,5.215,5.2161,5.2233,5.2195,5.2196,5.2215,5.2212,5.2235,5.2237,5.2237,5.2291,5.23,5.2332,5.2276,5.2427,5.2432,5.2435,5.2473,5.2481,5.2489,0,0,0,0,0,5.2087,5.2138,5.213,5.214,5.2192,5.2235,5.2241,5.224,5.2218,5.2242,5.2251,5.2236,5.2322,5.2296,5.2306,5.234,5.2425,5.243,5.2435,5.247,5.248,5.2488,0,0,0,0,0,0,5.212,5.2141,5.2132,5.2191,5.2211,5.223,5.2261,5.2251,5.2278,5.2274,5.227,5.2276,5.2329,5.2339,5.2309,5.2402,5.237,5.2378,5.2393,5.2403,5.241,5.2407,5.2279,0,0,0,0,0,5.2134,5.2168,5.2184,5.2234,5.2245,5.2251,5.227,5.2267,5.2288,5.2296,5.2309,5.233,5.2361,5.2383,5.2412,5.2474,5.2479,5.2502,5.251,5.2516,5.2523,5.2556,5.2567,5.2454,5.2454,5.2453,0,0,5.2164,5.2179,5.2201,5.2241,5.2257,5.2291,5.2259,5.2297,5.2322,5.2302,5.2351,5.2361,5.2384,5.244,5.2466,5.2451,5.2555,5.2522,5.2527,5.253,5.2562,5.2573,5.2582,5.2457,5.2456,5.2456,0,0,5.2236,5.225,5.2294,5.231,5.2334,5.2338,5.2348,5.2369,5.2374,5.2423,5.2409,5.2439,5.2493,5.251,5.2526,5.2603,5.2591,5.2613,5.2654,5.2686,5.2695,5.2703,5.2731,5.2741,5.2619,5.2619,5.2619,0,5.227,5.2321,5.2318,5.2357,5.2375,5.2358,5.2402,5.2418,5.245,5.2463,5.2445,5.2513,5.2528,5.2588,5.2607,5.262,5.2632,5.2611,5.2694,5.2702,5.2709,5.2736,5.2747,5.2622,5.2622,5.2621,5.2621,0,5.2362,5.2398,5.243,5.2462,5.2483,5.2525,5.2527,5.255,5.2544,5.255,5.2599,5.2616,5.2649,5.2662,5.2658,5.2722,5.2712,5.2694,5.2663,5.2723,5.2748,5.2758,5.2626,5.2625,5.2624,5.2623,0,0,5.2458,5.2486,5.2498,5.2512,5.2536,5.2564,5.2604,5.2636,5.2655,5.2677,5.2711,5.2757,5.2741,5.2759,5.2756,5.2784,5.2845,5.2763,5.2764,5.2779,5.2917,5.2931,5.2943,5.2836,5.2838,5.284,5.2915,0,5.2532,5.2603,5.26,5.2666,5.2699,5.2682,5.2717,5.2736,5.2742,5.2771,5.2777,5.281,5.2785,5.2796,5.2823,5.2832,5.2873,5.2826,5.2869,5.287,5.2864,5.2956,5.2971,5.3042,5.2925,5.2927,5.2928,0,5.2628,5.2654,5.2723,5.2742,5.2755,5.2787,5.2816,5.2843,5.2864,5.2866,5.2886,5.2878,5.2918,5.2885,5.2941,5.2909,5.2926,5.2933,5.2936,5.2941,5.2904,5.2964,5.3064,5.3075,5.2943,5.2942,5.2941,0,5.2692,5.2743,5.2791,5.2804,5.2827,5.2849,5.286,5.2878,5.2897,5.2922,5.2935,5.2964,5.298,5.3003,5.3004,5.2979,5.3061,5.3027,5.3064,5.3064,5.3083,5.3082,5.3188,5.3092,5.3092,5.3092,5.3092,0,5.2776,5.2819,5.282,5.285,5.2898,5.2894,5.2941,5.2949,5.2966,5.2997,5.2983,5.3013,5.3011,5.304,5.304,5.3087,5.3094,5.3098,5.3098,5.31,5.3099,5.3112,5.3107,5.3095,5.3094,5.3093,5.3093,0,5.2856,5.2858,5.291,5.2927,5.2932,5.2967,5.2981,5.3009,5.3013,5.3052,5.3061,5.3068,5.3102,5.3104,5.3143,5.3144,5.3201,5.3194,5.3194,5.3193,5.323,5.3227,5.3349,5.3365,5.3257,5.3258,5.3259,0,5.291,5.2943,5.2963,5.2983,5.2995,5.3026,5.3046,5.3042,5.3063,5.3088,5.3113,5.3146,5.3172,5.3227,5.3236,5.3266,5.3261,5.3301,5.3266,5.3267,5.3263,5.3261,5.3265,5.3309,5.331,5.3311,5.3312,0,5.3006,5.3005,5.3033,5.3062,5.3085,5.3108,5.3129,5.3145,5.3144,5.3168,5.3203,5.3223,5.3263,5.3296,5.3325,5.3335,5.3324,5.3323,5.3333,5.3336,5.3335,5.3337,5.3214,5.3321,5.332,5.3319,5.3319,5.3318,5.3075,5.3103,5.3122,5.3154,5.3169,5.3189,5.3216,5.3223,5.3251,5.3283,5.3279,5.3318,5.3337,5.3374,5.3388,5.3418,5.3404,5.3419,5.3423,5.3427,5.3431,5.3329,5.3423,5.3422,5.3422,5.3422,5.3422,0,5.3171,5.3182,5.3211,5.324,5.3265,5.3251,5.3273,5.3295,5.3329,5.3347,5.3373,5.3412,5.3444,5.3454,5.3485,5.3507,5.3502,5.3515,5.3514,5.3517,5.3441,5.343,5.3518,5.3518,5.3518,5.3518,5.3518,5.3518,5.3224,5.3272,5.3273,5.3327,5.3337,5.3375,5.3389,5.3407,5.3421,5.3466,5.3492,5.3498,5.3513,5.3544,5.3573,5.3575,5.3587,5.3602,5.3603,5.3532,5.3522,5.3513,5.3502,5.3605,5.3605,5.3676,5.3677,5.3677]}]]